EDT,Max TemperatureF,Mean TemperatureF,Min TemperatureF,Max Dew PointF,MeanDew PointF,Min DewpointF,Max Humidity, Mean Humidity, Min Humidity, Max Sea Level PressureIn, Mean Sea Level PressureIn, Min Sea Level PressureIn, Max VisibilityMiles, Mean VisibilityMiles, Min VisibilityMiles, Max Wind SpeedMPH, Mean Wind SpeedMPH, Max Gust SpeedMPH,PrecipitationIn, CloudCover, Events, WindDirDegrees
2014-3-1,12,6,0,7,-4,-17,85,63,41,30.36,30.18,29.97,10,10,9,15,9,21,0.00,3,,324
2014-3-2,10,0,-9,-11,-19,-26,65,42,26,30.39,30.34,30.26,10,10,7,14,7,18,0.00,0,,299
2014-3-3,12,-3,-18,7,-11,-31,100,58,20,30.45,30.37,30.25,10,10,2,17,7,23,0.00,2,,220
2014-3-4,17,6,-5,10,7,-15,100,80,61,30.32,30.21,30.17,10,8,1,8,5,,0.00,7,,254
2014-3-5,15,5,-5,1,-5,-24,100,72,35,30.56,30.48,30.32,10,10,4,9,5,,0.00,0,,2
2014-3-6,23,5,-13,12,6,-24,100,78,42,30.48,30.27,29.98,10,10,8,16,5,22,0.00,0,,184
2014-3-7,30,22,15,27,19,12,93,79,64,30.04,29.89,29.80,10,8,2,14,8,22,0.00,6,,240
2014-3-8,26,14,1,18,8,-9,100,66,43,30.24,30.17,30.05,10,10,10,14,9,24,0.00,3,,354
2014-3-9,30,12,-5,25,10,-15,100,79,55,30.12,29.84,29.60,10,10,6,23,4,33,0.00,2,,201
2014-3-10,59,37,15,34,23,10,100,66,25,29.63,29.50,29.37,10,10,3,22,3,37,0.01,1,,250
2014-3-11,44,36,28,28,24,14,80,59,46,29.90,29.71,29.54,10,10,10,15,8,21,0.00,3,,349
2014-3-12,24,14,0,16,-2,-9,78,56,38,30.11,30.02,29.89,10,10,9,18,11,29,0.00,1,,5
2014-3-13,28,10,-9,21,6,-18,100,77,59,30.08,29.88,29.62,10,10,10,21,6,29,0.00,3,,210
2014-3-14,42,33,24,37,29,21,93,84,61,29.68,29.46,29.35,10,8,2,16,10,26,0.08,4,,269
2014-3-15,26,17,6,21,7,0,74,63,46,30.43,30.09,29.70,10,10,6,15,11,24,0.00,4,,348
2014-3-16,15,6,-2,3,-2,-11,100,71,53,30.51,30.41,30.20,10,10,10,12,5,17,0.00,0,,269
2014-3-17,23,10,-2,19,7,-9,100,80,54,30.20,29.96,29.83,10,9,1,20,5,28,0.00,6,,145
2014-3-18,30,26,21,27,20,18,93,77,69,29.97,29.91,29.87,10,10,3,16,10,21,0.00,7,,93
2014-3-19,33,30,28,30,27,25,93,88,80,29.90,29.70,29.62,10,4,1,15,8,18,0.00,8,,1
2014-3-20,35,29,23,25,20,16,86,66,44,30.00,29.90,29.77,10,10,10,16,9,21,0.01,5,,299
2014-3-21,55,20,6,28,19,1,100,81,60,30.00,29.91,29.80,10,8,0,15,3,22,0.00,4,,117
2014-3-22,32,20,10,28,12,0,93,66,36,30.33,30.09,29.81,10,10,3,17,8,24,0.00,6,,331
2014-3-23,21,12,1,9,2,-6,100,66,39,30.38,30.34,30.30,10,10,10,14,7,18,0.00,2,,284
2014-3-24,28,10,-9,5,-2,-24,100,58,29,30.30,30.13,29.95,10,10,9,21,5,25,0.00,2,,288
2014-3-25,19,10,0,10,2,-8,92,62,35,30.14,30.01,29.90,10,10,2,18,7,24,0.00,5,,307
2014-3-26,26,13,0,19,6,-6,92,66,53,30.20,30.11,29.97,10,10,10,18,5,26,0.00,4,,199
2014-3-27,33,30,26,32,29,21,93,89,80,29.96,29.70,29.49,10,2,0,17,9,23,0.01,8,,177
2014-3-28,35,30,26,32,23,16,100,73,44,30.25,29.87,29.50,10,9,1,17,5,30,0.01,5,,2
2014-3-29,37,29,19,19,15,7,86,61,35,30.32,30.26,30.22,10,10,10,10,3,,0.00,2,,63
2014-3-30,37,24,10,28,20,7,100,78,60,30.24,30.11,30.01,10,10,1,16,3,21,0.00,0,,167
2014-3-31,42,35,28,34,28,23,93,74,57,30.05,29.93,29.71,10,10,9,16,6,23,0.02,2,Thunderstorm,105